Regional Weather Roundup
Issued by NWS

Home | Current Version | Previous Version | Graphics & Text | Print | Product List | Glossary Off
Versions: 1 2 3 4 5 6 7 8 9 10 11 12 13 14 15 16 17 18 19 20 21 22 23 24 25 26 27 28 29 30 31 32 33 34 35 36 37 38 39 40 41 42 43 44 45 46 47 48 49 50

000
ASUS43 KMPX 230101
RWRMN
WEATHER ROUNDUP FOR MINNESOTA
NATIONAL WEATHER SERVICE TWIN CITIES/CHANHASSEN MN
800 PM CDT FRI SEP 22 2017


NOTE: "FAIR" INDICATES FEW OR NO CLOUDS BELOW 12,000 FEET WITH NO
SIGNIFICANT WEATHER AND/OR OBSTRUCTIONS TO VISIBILITY. N/A MEANS
CURRENT SKY AND/OR WEATHER CONDITIONS ARE NOT AVAILABLE.

MNZ060>063-068>070-230200-
   Twin Cities Metro

CITY           SKY/WX    TMP DP  RH WIND       PRES   REMARKS
TWIN CITIES    PTCLDY    88  68  51 S12       29.81R HX  91
ST PAUL        CLEAR     84  68  58 SE13      29.81R
CRYSTAL        CLEAR     86  65  49 S14G24    29.79R
BLAINE         PTCLDY    88  66  48 S14G23    29.79R HX  90
LAKEVILLE      CLEAR     82  68  61 S9        29.83R
EDEN PRAIRIE   CLEAR     86  68  54 S13       29.79R
SOUTH ST PAUL  CLEAR     85  66  52 S7        29.82R
LAKE ELMO      FAIR      84  68  58 S10       29.84R
$$
MNZ001>005-007-008-013>017-022>024-027-028-230200-
   Northwest Minnesota

CITY           SKY/WX    TMP DP  RH WIND       PRES   REMARKS
BEMIDJI        PTCLDY    73  71  93 E8        29.71F
HALLOCK          N/A     59  55  88 N16       29.70F
ROSEAU         CLOUDY    66  61  82 NE23G29   29.70F
WARROAD        CLOUDY    64  61  88 N13       29.74R
THIEF RVR FALL MOCLDY    72  70  94 E12       29.64F
CROOKSTON      LGT RAIN  70  66  88 N9        29.64F
FOSSTON        CLEAR     77  70  78 SE7       29.67S
DETROIT LAKES  CLEAR     79  72  78 S8        29.70R
MOORHEAD       CLEAR     81  70  69 SE7       29.62S
PARK RAPIDS    CLOUDY    80  73  79 SE10      29.71S
MAHNOMEN       FAIR      77  72  83 SE7       29.66S
$$
MNZ006-009>011-018-025>026-230200-
   North Central Minnesota

CITY           SKY/WX    TMP DP  RH WIND       PRES   REMARKS
BAUDETTE       CLOUDY    70  68  93 E7        29.72F
FLAG ISLAND    PTCLDY    66  63  88 NE6       29.72F
INTL FALLS     CLOUDY    71  69  93 E3        29.76F
WASKISH        CLEAR     72  70  94 E6        29.72F
BIG FORK       CLOUDY    73  70  88 CALM      29.75S
LONGVILLE      CLEAR     75  72  88 SE3       29.73R
GRAND RAPIDS   CLEAR     77  73  87 SE8       29.76S
CRANE LAKE     CLOUDY    72  70  94 CALM      29.80S
ORR            CLOUDY    73  66  78 CALM      29.75S
COOK           MOCLDY    73  70  88 CALM      29.78S
WALKER         FAIR      76  72  86 SE7       29.71S
$$
MNZ012-019>021-037-230200-
   Northeast Minnesota

CITY           SKY/WX    TMP DP  RH WIND       PRES   REMARKS
DULUTH         CLOUDY    67  65  93 SE13      29.81S
ELY            PTCLDY    73  70  88 SE3       29.81R
HIBBING        CLEAR     71  70  96 SE6       29.77S
EVELETH        CLEAR     74  68  81 SE3       29.80S
DULUTH HARBOR  PTCLDY    64  63  94 NE9       29.81R
GRAND MARAIS     N/A     65  61  87 NE7       29.86F
$$
MNZ029>031-032-039>041-046>048-054>057-064-230200-
   West Central Minnesota

CITY           SKY/WX    TMP DP  RH WIND       PRES   REMARKS
FERGUS FALLS   CLEAR     81  70  69 S8        29.65S
WHEATON        CLEAR     82  68  61 SW10      29.68R
MORRIS         CLOUDY    82  70  65 S12       29.68S
ALEXANDRIA     CLEAR     82  71  69 S12       29.74
ELBOW LAKE     FAIR      80  71  74 S10       29.69S
WADENA         CLEAR     79  72  78 S7        29.71S
GLENWOOD       CLEAR     81  72  74 S10       29.74S
APPLETON       CLOUDY    86  68  54 S9        29.67F
BENSON         CLOUDY    84  70  61 S9        29.71F
ORTONVILLE     CLOUDY    82  70  65 N12G17    29.68R
MADISON        CLOUDY    84  72  65 SW7       29.69S
WILLMAR        FAIR      86  70  58 S7        29.75R HX  90
$$
MNZ033>034-036-042>043-049>051-058-059-230200-
   Central Minnesota

CITY           SKY/WX    TMP DP  RH WIND       PRES   REMARKS
ST CLOUD       PTCLDY    83  72  69 S14       29.75R
SAUK CENTRE    FAIR      79  72  78 SE7       29.74S
PAYNESVILLE    PTCLDY    84  71  63 S10       29.75S
AITKIN         CLEAR     79  72  78 S12G17    29.74R
PINE RIVER     CLOUDY    73  70  88 SE6       29.76S
BRAINERD       CLEAR     81  71  71 S12       29.74R
STAPLES        CLOUDY    81  70  69 SE8       29.72S
LITTLE FALLS   PTCLDY    81  64  57 SE7       29.75R
LITCHFIELD     CLOUDY    88  70  55 S8        29.76S HX  92
BUFFALO        PTCLDY    85  67  55 S9        29.79R
MAPLE LAKE     PTCLDY    84  72  65 S5        29.78R
HUTCHINSON     PTCLDY    85  71  63 S7        29.79S HX  90
$$
MNZ037-044-045-052-053-230200-
   East Central Minnesota

CITY           SKY/WX    TMP DP  RH WIND       PRES   REMARKS
PRINCETON      CLEAR     84  70  61 S10G16    29.78R
MORA           CLEAR     79  68  69 SE6       29.80R
RUSH CITY      CLEAR     82  68  62 S9        29.79R
MOOSE LAKE     CLEAR     79  70  73 S6        29.76R
HINCKLEY       FAIR      81  72  74 SE7       29.79R
CLOQUET        CLEAR     72  64  78 E6        29.80R
MCGREGOR       CLEAR     79  72  78 S6        29.77R
$$
MNZ071>073-080-081-089-090-097-098-230200-
   Southwest Minnesota

CITY           SKY/WX    TMP DP  RH WIND       PRES   REMARKS
MONTEVIDEO     CLOUDY    84  70  61 S10G18    29.69F
GRANITE FALLS  CLOUDY    86  72  62 SE12G17   29.74S HX  91
CANBY          CLOUDY    83  69  62 S10G16    29.71R
MARSHALL       CLOUDY    85  70  60 S8        29.74S
REDWOOD FALLS  MOCLDY    86  68  54 S17       29.75S
OLIVIA         CLOUDY    84  68  58 S9        29.75R
PIPESTONE      MOCLDY    82  70  65 S8        29.77S
WORTHINGTON    CLOUDY    83  69  62 S16G24    29.80S
JACKSON        CLEAR     81  64  57 S13G20    29.84R
TRACY          CLOUDY    84  70  62 S12G17    29.77R
SLAYTON        CLOUDY    82  64  54 S12       29.79S
$$
MNZ065>067-074>077-082>085-091>093-230200-
   South Central Minnesota

CITY           SKY/WX    TMP DP  RH WIND       PRES   REMARKS
MANKATO        PTCLDY    84  68  58 S13G20    29.82R
NEW ULM        CLOUDY    84  64  51 S12G18    29.79R
ST JAMES       PTCLDY    84  64  51 SE16G23   29.81S
FAIRMONT       CLEAR     82  66  58 S13       29.84R
FARIBAULT      CLEAR     84  68  58 S14G20    29.85R
OWATONNA       CLEAR     82  68  61 S16       29.86R
WASECA         CLEAR     82  66  57 SE9G17    29.86R
ALBERT LEA     CLEAR     84  70  61 S10G16    29.88R
$$
MNZ078>079-086>088-094>096-230200-
   Southeast Minnesota

CITY           SKY/WX    TMP DP  RH WIND       PRES   REMARKS
ROCHESTER      CLEAR     81  66  60 S15       29.91R
RED WING       CLEAR     84  63  48 S12       29.84R
STANTON        CLEAR     84  66  54 S12       29.82R
DODGE CENTER   CLEAR     81  64  57 S13G18    29.89R
WINONA         CLEAR     82  63  51 S5        29.90R
AUSTIN         CLEAR     81  66  61 S8        29.90R
PRESTON        CLEAR     80  64  56 S14       29.93S
$$
ABBREVIATIONS USED IN REMARKS
   TC - TEMPERATURES IN CELSIUS
  WCI - WIND CHILL INDEX
   HX - HEAT INDEX
  VSB - VISIBILITY
$$




USA.gov is the U.S. government's official web portal to all federal, state and local government web resources and services.